{"data":{"norad_id":48657,"intl_designator":"2021-044V","name":"STARLINK-2734","alt_names":[],"object_type":"PAYLOAD","status":"ACTIVE","operator":null,"country":"US","launch_date":"2021-05-26","launch_site_code":"AFETR","launch_vehicle":null,"mission":null,"orbit_class":"UNKNOWN","rcs_meters":null,"size_class":null,"mass_kg":null,"dimensions":null,"purposes":["comms"],"wikipedia_slug":null,"has_3d_model":false,"image_url":null,"decayed_at":null,"tle_current":{"epoch":"2026-09-19T16:56:53.323872Z","epoch_age_seconds":105825,"freshness":"FRESH","line1":"1 48657U 21044V   26262.70617273 -.00000838  00000+0 -15252-4 0  9991","line2":"2 48657  53.1604 291.0421 0001295  75.5691 284.5454 15.31695594293554","mean_motion":15.31695594,"eccentricity":0.0001295,"inclination_deg":53.1604,"raan_deg":291.0421,"arg_perigee_deg":75.5691,"mean_anomaly_deg":284.5454,"bstar":-1.5252e-5,"rev_number":29355,"period_min":94.013458394789,"perigee_km":469.86619804212,"apogee_km":471.64006058561,"semimajor_km":6848.8901293139,"source":"CELESTRAK","updated_at":"2026-09-20T09:00:39.142812Z"}}}